H1 CPF 2 NER 2021 5 24 9 144 01 glonass105 H2 0705202 9105 32276 2021 5 24 0 0 0 2021 5 27 23 45 0 900 1 1 0 0 0 1 H9 10 0 59358 0.00000 0 16586154.426 -4405711.437 -18889373.592 10 0 59358 900.00000 0 14802171.808 -2736037.089 -20605200.865 10 0 59358 1800.00000 0 13031904.610 -791397.297 -21921310.233 10 0 59358 2700.00000 0 11335868.879 1393026.230 -22812029.398 10 0 59358 3600.00000 0 9768114.624 3770867.335 -23259915.331 10 0 59358 4500.00000 0 8374050.196 6286262.632 -23256102.866 10 0 59358 5400.00000 0 7188643.690 8875945.616 -22800489.019 10 0 59358 6300.00000 0 6235076.780 11471662.566 -21901748.600 10 0 59358 7200.00000 0 5523907.661 14002811.083 -20577179.779 10 0 59358 8100.00000 0 5052778.559 16399192.508 -18852381.455 10 0 59358 9000.00000 0 4806680.501 18593764.067 -16760767.378 10 0 59358 9900.00000 0 4758764.652 20525275.907 -14342925.415 10 0 59358 10800.00000 0 4871666.199 22140682.502 -11645833.414 10 0 59358 11700.00000 0 5099284.929 23397226.840 -8721946.319 10 0 59358 12600.00000 0 5388946.811 24264109.092 -5628172.164 10 0 59358 13500.00000 0 5683854.393 24723668.929 -2424757.153 10 0 59358 14400.00000 0 5925721.022 24772031.073 825897.773 10 0 59358 15300.00000 0 6057475.807 24419186.570 4060464.613 10 0 59358 16200.00000 0 6025922.964 23688506.434 7215934.975 10 0 59358 17100.00000 0 5784241.078 22615708.669 10230859.973 10 0 59358 18000.00000 0 5294214.752 21247323.147 13046557.668 10 0 59358 18900.00000 0 4528102.742 19638720.249 15608263.343 10 0 59358 19800.00000 0 3470062.458 17851787.667 17866199.364 10 0 59358 20700.00000 0 2117069.977 15952354.462 19776543.282 10 0 59358 21600.00000 0 479296.365 14007471.772 21302275.415 10 0 59358 22500.00000 0 -1420075.640 12082665.007 22413889.965 10 0 59358 23400.00000 0 -3545586.773 10239272.974 23089956.656 10 0 59358 24300.00000 0 -5850757.272 8531985.007 23317523.205 10 0 59358 25200.00000 0 -8279811.179 7006678.133 23092352.106 10 0 59358 26100.00000 0 -10769796.900 5698643.304 22418988.441 10 0 59358 27000.00000 0 -13253015.863 4631272.941 21310658.585 10 0 59358 27900.00000 0 -15659658.654 3815262.514 19789002.741 10 0 59358 28800.00000 0 -17920539.584 3248357.422 17883647.157 10 0 59358 29700.00000 0 -19969816.875 2915653.665 15631624.698 10 0 59358 30600.00000 0 -21747586.415 2790437.854 13076655.003 10 0 59358 31500.00000 0 -23202242.188 2835529.912 10268298.067 10 0 59358 32400.00000 0 -24292506.298 3005070.974 7260997.223 10 0 59358 33300.00000 0 -24989045.017 3246680.654 4113029.503 10 0 59358 34200.00000 0 -25275604.331 3503892.624 885383.249 10 0 59358 35100.00000 0 -25149618.285 3718765.862 -2359415.926 10 0 59358 36000.00000 0 -24622265.167 3834561.657 -5558508.659 10 0 59358 36900.00000 0 -23717969.377 3798373.701 -8649911.978 10 0 59358 37800.00000 0 -22473369.739 3563600.504 -11573713.125 10 0 59358 38700.00000 0 -20935797.102 3092155.799 -14273224.446 10 0 59358 39600.00000 0 -19161324.396 2356323.515 -16696077.312 10 0 59358 40500.00000 0 -17212469.984 1340178.503 -18795234.343 10 0 59358 41400.00000 0 -15155649.468 40512.154 -20529900.712 10 0 59358 42300.00000 0 -13058481.594 -1532777.441 -21866317.081 10 0 59358 43200.00000 0 -10987059.908 -3356849.043 -22778419.013 10 0 59358 44100.00000 0 -9003303.258 -5396630.878 -23248350.041 10 0 59358 45000.00000 0 -7162495.199 -7606054.748 -23266818.139 10 0 59358 45900.00000 0 -5511114.562 -9929762.451 -22833288.188 10 0 59358 46800.00000 0 -4085047.565 -12305215.450 -21956005.893 10 0 59358 47700.00000 0 -2908256.233 -14665121.525 -20651851.652 10 0 59358 48600.00000 0 -1991958.971 -16940078.575 -18946026.071 10 0 59358 49500.00000 0 -1334357.819 -19061326.102 -16871571.955 10 0 59358 50400.00000 0 -920924.122 -20963489.627 -14468740.954 10 0 59358 51300.00000 0 -725230.657 -22587203.082 -11784216.222 10 0 59358 52200.00000 0 -710295.051 -23881498.720 -8870205.536 10 0 59358 53100.00000 0 -830377.426 -24805863.268 -5783422.398 10 0 59358 54000.00000 0 -1033155.464 -25331872.990 -2583975.160 10 0 59358 54900.00000 0 -1262183.758 -25444337.852 665813.514 10 0 59358 55800.00000 0 -1459531.816 -25141905.880 3902632.670 10 0 59358 56700.00000 0 -1568487.226 -24437101.832 7063429.369 10 0 59358 57600.00000 0 -1536207.625 -23355798.616 10086649.507 10 0 59358 58500.00000 0 -1316207.362 -21936144.198 12913447.453 10 0 59358 59400.00000 0 -870571.987 -20226990.080 15488839.726 10 0 59358 60300.00000 0 -171805.618 -18285888.594 17762779.387 10 0 59358 61200.00000 0 795767.761 -16176744.439 19691129.662 10 0 59358 62100.00000 0 2035108.670 -13967220.200 21236517.936 10 0 59358 63000.00000 0 3536110.149 -11726005.410 22369053.981 10 0 59358 63900.00000 0 5275804.035 -9520063.999 23066899.273 10 0 59358 64800.00000 0 7219116.718 -7411975.031 23316677.527 10 0 59358 65700.00000 0 9320142.479 -5457477.134 23113719.783 10 0 59358 66600.00000 0 11523880.957 -3703317.880 22462140.558 10 0 59358 67500.00000 0 13768366.276 -2185496.091 21374744.815 10 0 59358 68400.00000 0 15987099.256 -927968.327 19872768.515 10 0 59358 69300.00000 0 18111681.768 58128.698 17985458.473 10 0 59358 70200.00000 0 20074544.183 774709.584 15749500.061 10 0 59358 71100.00000 0 21811653.177 1236418.078 13208303.901 10 0 59358 72000.00000 0 23265087.921 1469766.574 10411165.221 10 0 59358 72900.00000 0 24385378.273 1511774.897 7412311.812 10 0 59358 73800.00000 0 25133508.332 1408166.578 4269858.454 10 0 59358 74700.00000 0 25482502.437 1211199.129 1044687.599 10 0 59358 75600.00000 0 25418527.981 977219.945 -2200722.630 10 0 59358 76500.00000 0 24941469.247 764050.854 -5403501.025 10 0 59358 77400.00000 0 24064948.368 628311.421 -8501593.604 10 0 59358 78300.00000 0 22815792.333 622793.709 -11434958.753 10 0 59358 79200.00000 0 21232967.854 793999.105 -14146724.533 10 0 59358 80100.00000 0 19366027.978 1179941.123 -16584286.102 10 0 59358 81000.00000 0 17273134.497 1808307.145 -18700322.435 10 0 59358 81900.00000 0 15018737.689 2695057.215 -20453713.042 10 0 59358 82800.00000 0 12671009.251 3843519.940 -21810337.114 10 0 59358 83700.00000 0 10299134.422 5244025.006 -22743739.824 10 0 59358 84600.00000 0 7970575.152 6874089.629 -23235652.812 10 0 59358 85500.00000 0 5748417.649 8699153.207 -23276358.505 10 0 59359 0.00000 0 3688914.112 10673831.648 -22864890.705 10 0 59359 900.00000 0 1839320.838 12743641.374 -22009066.676 10 0 59359 1800.00000 0 236122.157 14847122.201 -20725349.407 10 0 59359 2700.00000 0 -1096284.473 16918272.835 -19038541.116 10 0 59359 3600.00000 0 -2146388.753 18889197.639 -16981313.122 10 0 59359 4500.00000 0 -2915818.255 20692854.669 -14593579.845 10 0 59359 5400.00000 0 -3419029.640 22265789.853 -11921728.243 10 0 59359 6300.00000 0 -3682453.324 23550742.153 -9017716.947 10 0 59359 7200.00000 0 -3743128.011 24499009.362 -5938062.485 10 0 59359 8100.00000 0 -3646883.465 25072473.950 -2742732.505 10 0 59359 9000.00000 0 -3446149.411 25245202.467 506031.806 10 0 59359 9900.00000 0 -3197484.661 25004550.030 3744940.004 10 0 59359 10800.00000 0 -2958932.792 24351722.516 6910898.218 10 0 59359 11700.00000 0 -2787318.223 23301772.348 9942250.794 10 0 59359 12600.00000 0 -2735599.012 21883028.051 12779992.027 10 0 59359 13500.00000 0 -2850390.156 20135982.053 15368923.155 10 0 59359 14400.00000 0 -3169763.588 18111684.280 17658731.197 10 0 59359 15300.00000 0 -3721418.852 15869710.059 19604968.044 10 0 59359 16200.00000 0 -4521302.297 13475788.603 21169910.804 10 0 59359 17100.00000 0 -5572733.233 10999192.264 22323287.102 10 0 59359 18000.00000 0 -6866073.706 8509996.337 23042852.030 10 0 59359 18900.00000 0 -8378955.450 6076323.974 23314806.705 10 0 59359 19800.00000 0 -10077054.149 3761690.631 23134051.592 10 0 59359 20700.00000 0 -11915378.150 1622557.831 22504270.973 10 0 59359 21600.00000 0 -13840017.512 -293803.395 21437848.142 10 0 59359 22500.00000 0 -15790280.310 -1951052.354 19955613.955 10 0 59359 23400.00000 0 -17701127.125 -3325051.462 18086434.332 10 0 59359 24300.00000 0 -19505802.591 -4404621.253 15866645.128 10 0 59359 25200.00000 0 -21138554.812 -5191748.404 13339345.401 10 0 59359 26100.00000 0 -22537329.866 -5701240.172 10553562.635 10 0 59359 27000.00000 0 -23646329.732 -5959841.507 7563305.766 10 0 59359 27900.00000 0 -24418327.556 -6004853.320 4426523.769 10 0 59359 28800.00000 0 -24816644.152 -5882310.864 1203989.517 10 0 59359 29700.00000 0 -24816703.556 -5644799.457 -2041870.096 10 0 59359 30600.00000 0 -24407102.829 -5348999.734 -5248175.723 10 0 59359 31500.00000 0 -23590151.289 -5053065.817 -8352805.984 10 0 59359 32400.00000 0 -22381856.329 -4813946.774 -11295593.860 10 0 59359 33300.00000 0 -20811355.792 -4684764.091 -14019486.346 10 0 59359 34200.00000 0 -18919819.841 -4712355.593 -16471645.295 10 0 59359 35100.00000 0 -16758867.148 -4935089.406 -18604468.551 10 0 59359 36000.00000 0 -14388560.310 -5381040.391 -20376511.987 10 0 59359 36900.00000 0 -11875062.885 -6066606.516 -21753294.788 10 0 59359 37800.00000 0 -9288054.393 -6995624.407 -22707972.585 10 0 59359 38700.00000 0 -6698009.686 -8159022.773 -23221865.368 10 0 59359 39600.00000 0 -4173454.943 -9535029.960 -23284829.660 10 0 59359 40500.00000 0 -1778313.567 -11089928.983 -22895467.273 10 0 59359 41400.00000 0 430548.214 -12779330.459 -22061165.796 10 0 59359 42300.00000 0 2405474.121 -14549912.070 -20797969.068 10 0 59359 43200.00000 0 4109779.471 -16341553.416 -19130278.980 10 0 59359 44100.00000 0 5519048.173 -18089778.147 -17090393.167 10 0 59359 45000.00000 0 6621910.696 -19728401.729 -14717886.452 10 0 59359 45900.00000 0 7420270.412 -21192274.022 -12058847.078 10 0 59359 46800.00000 0 7928968.874 -22420001.158 -9164981.911 10 0 59359 47700.00000 0 8174904.388 -23356531.423 -6092607.805 10 0 59359 48600.00000 0 8195641.625 -23955495.194 -2901548.961 10 0 59359 49500.00000 0 8037571.951 -24181198.987 346037.655 10 0 59359 50400.00000 0 7753703.496 -24010188.196 3586884.819 10 0 59359 51300.00000 0 7401176.071 -23432311.449 6757860.361 10 0 59359 52200.00000 0 7038607.945 -22451240.843 9797209.595 10 0 59359 53100.00000 0 6723388.612 -21084425.650 12645769.088 10 0 59359 54000.00000 0 6509033.933 -19362481.470 15248126.928 10 0 59359 54900.00000 0 6442717.011 -17328040.854 17553705.957 10 0 59359 55800.00000 0 6563080.321 -15034114.416 19517748.300 10 0 59359 56700.00000 0 6898422.152 -12542031.976 21102182.013 10 0 59359 57600.00000 0 7465334.137 -9919050.714 22276353.436 10 0 59359 58500.00000 0 8267847.081 -7235730.968 23017611.776 10 0 59359 59400.00000 0 9297120.609 -4563189.433 23311735.703 10 0 59359 60300.00000 0 10531689.090 -1970343.982 23153194.946 10 0 59359 61200.00000 0 11938252.857 478735.798 22545243.124 10 0 59359 62100.00000 0 13472981.058 2727263.398 21499841.208 10 0 59359 63000.00000 0 15083271.264 4727855.941 20037414.110 10 0 59359 63900.00000 0 16709892.060 6444254.197 18186445.867 10 0 59359 64800.00000 0 18289419.184 7852572.774 15982921.683 10 0 59359 65700.00000 0 19756863.757 8942030.657 13469627.754 10 0 59359 66600.00000 0 21048383.197 9715133.796 10695322.365 10 0 59359 67500.00000 0 22103962.113 10187304.133 7713793.929 10 0 59359 68400.00000 0 22869951.694 10385972.239 4582823.732 10 0 59359 69300.00000 0 23301361.841 10349172.868 1363072.970 10 0 59359 70200.00000 0 23363810.546 10123703.281 -1883084.987 10 0 59359 71100.00000 0 23035049.043 9762922.242 -5092765.087 10 0 59359 72000.00000 0 22305998.819 9324282.432 -8203781.057 10 0 59359 72900.00000 0 21181256.667 8866700.164 -11155842.963 10 0 59359 73800.00000 0 19679045.949 8447872.928 -13891719.145 10 0 59359 74700.00000 0 17830615.188 8121657.586 -16358340.421 10 0 59359 75600.00000 0 15679107.890 7935619.479 -18507825.605 10 0 59359 76500.00000 0 13277949.375 7928855.717 -20298408.873 10 0 59359 77400.00000 0 10688816.432 8130184.552 -21695251.193 10 0 59359 78300.00000 0 7979272.865 8556777.668 -22671120.311 10 0 59359 79200.00000 0 5220167.824 9213293.879 -23206926.084 10 0 59359 80100.00000 0 2482903.905 10091551.951 -23292100.489 10 0 59359 81000.00000 0 -163312.537 11170757.926 -22924814.512 10 0 59359 81900.00000 0 -2654125.430 12418279.204 -22112026.908 10 0 59359 82800.00000 0 -4932477.465 13790934.677 -20869362.943 10 0 59359 83700.00000 0 -6950751.413 15236748.480 -19220824.338 10 0 59359 84600.00000 0 -8672515.160 16697095.156 -17198334.799 10 0 59359 85500.00000 0 -10073797.426 18109147.024 -14841128.876 10 0 59360 0.00000 0 -11143840.784 19408521.434 -12194995.068 10 0 59360 900.00000 0 -11885300.218 20532016.200 -9311386.841 10 0 59360 1800.00000 0 -12313879.468 21420317.987 -6246419.541 10 0 59360 2700.00000 0 -12457419.965 22020567.267 -3059771.665 10 0 59360 3600.00000 0 -12354482.634 22288671.700 186486.631 10 0 59360 4500.00000 0 -12052482.706 22191267.714 3429114.214 10 0 59360 5400.00000 0 -11605458.219 21707246.587 6604943.729 10 0 59360 6300.00000 0 -11071568.185 20828779.242 9652124.745 10 0 59360 7200.00000 0 -10510428.103 19561795.686 12511339.500 10 0 59360 8100.00000 0 -9980397.307 17925898.451 15126966.364 10 0 59360 9000.00000 0 -9535934.462 15953713.587 17448167.389 10 0 59360 9900.00000 0 -9225134.167 13689706.859 19429878.176 10 0 59360 10800.00000 0 -9087549.495 11188515.329 21033680.766 10 0 59360 11700.00000 0 -9152392.609 8512864.785 22228542.963 10 0 59360 12600.00000 0 -9437189.096 5731160.700 22991410.475 10 0 59360 13500.00000 0 -9946942.130 2914853.508 23307641.476 10 0 59360 14400.00000 0 -10673840.803 135687.917 23171276.438 10 0 59360 15300.00000 0 -11597523.947 -2537049.705 22585139.239 10 0 59360 16200.00000 0 -12685887.495 -5039172.373 21560768.882 10 0 59360 17100.00000 0 -13896400.813 -7314013.671 20118184.095 10 0 59360 18000.00000 0 -15177876.319 -9314530.100 18285486.179 10 0 59360 18900.00000 0 -16472618.043 -11004999.285 16098308.261 10 0 59360 19800.00000 0 -17718859.199 -12362245.542 13599121.714 10 0 59360 20700.00000 0 -18853386.940 -13376343.860 10836413.169 10 0 59360 21600.00000 0 -19814244.781 -14050774.990 7863747.667 10 0 59360 22500.00000 0 -20543399.990 -14402026.939 4738735.625 10 0 59360 23400.00000 0 -20989264.610 -14458660.977 1521923.130 10 0 59360 24300.00000 0 -21108964.828 -14259882.361 -1724373.581 10 0 59360 25200.00000 0 -20870263.710 -13853676.493 -4937267.472 10 0 59360 26100.00000 0 -20253056.607 -13294589.098 -8054511.149 10 0 59360 27000.00000 0 -19250376.186 -12641243.838 -11015695.504 10 0 59360 27900.00000 0 -17868864.258 -11953701.611 -13763413.860 10 0 59360 28800.00000 0 -16128689.646 -11290772.374 -16244369.432 10 0 59360 29700.00000 0 -14062914.223 -10707392.328 -18410405.124 10 0 59360 30600.00000 0 -11716332.011 -10252176.591 -20219436.095 10 0 59360 31500.00000 0 -9143828.168 -9965250.298 -21636267.233 10 0 59360 32400.00000 0 -6408324.410 -9876449.532 -22633279.916 10 0 59360 33300.00000 0 -3578394.668 -10003968.255 -23190974.720 10 0 59360 34200.00000 0 -725648.572 -10353508.928 -23298359.283 10 0 59360 35100.00000 0 2078009.887 -10917973.679 -22953173.370 10 0 59360 36000.00000 0 4763135.730 -11677710.367 -22161945.984 10 0 59360 36900.00000 0 7265394.670 -12601304.715 -20939882.470 10 0 59360 37800.00000 0 9528003.246 -13646886.722 -19310582.664 10 0 59360 38700.00000 0 11503856.020 -14763897.779 -17305594.337 10 0 59360 39600.00000 0 13157250.947 -15895245.135 -14963809.483 10 0 59360 40500.00000 0 14465140.673 -16979753.615 -12330714.207 10 0 59360 41400.00000 0 15417857.231 -17954811.348 -9457506.058 10 0 59360 42300.00000 0 16019279.553 -18759097.449 -6400095.788 10 0 59360 43200.00000 0 16286437.009 -19335275.615 -3218013.058 10 0 59360 44100.00000 0 16248566.115 -19632538.559 26762.020 10 0 59360 45000.00000 0 15945661.050 -19608894.217 3271017.661 10 0 59360 45900.00000 0 15426580.413 -19233095.562 6451554.518 10 0 59360 46800.00000 0 14746791.758 -18486130.996 9506429.436 10 0 59360 47700.00000 0 13965850.943 -17362211.208 12376173.107 10 0 59360 48600.00000 0 13144724.629 -15869210.027 15004956.634 10 0 59360 49500.00000 0 12343070.687 -14028540.216 17341683.359 10 0 59360 50400.00000 0 11616592.720 -11874469.428 19340984.028 10 0 59360 51300.00000 0 11014581.227 -9452905.243 20964095.904 10 0 59360 52200.00000 0 10577745.493 -6819700.567 22179609.050 10 0 59360 53100.00000 0 10336427.404 -4038550.769 22964066.041 10 0 59360 54000.00000 0 10309271.764 -1178570.607 23302404.526 10 0 59360 54900.00000 0 10502408.052 1688348.080 23188235.295 10 0 59360 55800.00000 0 10909176.826 4490288.133 22623951.766 10 0 59360 56700.00000 0 11510411.024 7158054.687 21620669.963 10 0 59360 57600.00000 0 12275259.179 9627805.587 20198001.209 10 0 59360 58500.00000 0 13162515.108 11843456.762 18383662.681 10 0 59360 59400.00000 0 14122397.588 13758764.428 16212933.892 10 0 59360 60300.00000 0 15098705.075 15338999.535 13727969.745 10 0 59360 61200.00000 0 16031254.991 16562146.689 10976983.440 10 0 59360 62100.00000 0 16858505.423 17419579.600 8013314.753 10 0 59360 63000.00000 0 17520249.567 17916186.641 4894401.202 10 0 59360 63900.00000 0 17960270.200 18069942.729 1680671.615 10 0 59360 64800.00000 0 18128843.072 17910946.645 -1565617.144 10 0 59360 65700.00000 0 17984984.343 17479964.958 -4781578.360 10 0 59360 66600.00000 0 17498347.672 16826544.059 -7904905.814 10 0 59360 67500.00000 0 16650691.045 16006769.729 -10875073.469 10 0 59360 68400.00000 0 15436851.141 15080768.240 -13634501.757 10 0 59360 69300.00000 0 13865183.421 14110053.674 -16129668.271 10 0 59360 70200.00000 0 11957448.202 13154832.560 -18312141.814 10 0 59360 71100.00000 0 9748145.764 12271378.695 -20139520.181 10 0 59360 72000.00000 0 7283326.527 11509588.170 -21576253.689 10 0 59360 72900.00000 0 4618923.892 10910817.159 -22594338.716 10 0 59360 73800.00000 0 1818677.169 10506093.414 -23173867.792 10 0 59360 74700.00000 0 -1048270.779 10314776.964 -23303425.291 10 0 59360 75600.00000 0 -3910003.020 10343726.941 -22980320.617 10 0 59360 76500.00000 0 -6694577.288 10587010.442 -22210653.623 10 0 59360 77400.00000 0 -9332780.666 11026166.801 -21009210.009 10 0 59360 78300.00000 0 -11760776.357 11631017.320 -19399187.652 10 0 59360 79200.00000 0 -13922532.656 12360987.537 -17411757.947 10 0 59360 80100.00000 0 -15771932.786 13166887.290 -15085469.542 10 0 59360 81000.00000 0 -17274477.279 13993074.161 -12465505.100 10 0 59360 81900.00000 0 -18408507.397 14779909.212 -9602804.747 10 0 59360 82800.00000 0 -19165897.897 15466401.017 -6553073.062 10 0 59360 83700.00000 0 -19552189.997 15992925.436 -3375689.011 10 0 59360 84600.00000 0 -19586159.089 16303904.970 -132540.574 10 0 59360 85500.00000 0 -19298835.894 16350332.782 3113192.122 10 0 59361 0.00000 0 -18732023.321 16092033.079 6298280.198 10 0 59361 900.00000 0 -17936372.870 15499560.123 9360690.648 10 0 59361 1800.00000 0 -16969103.344 14555655.518 12240805.489 10 0 59361 2700.00000 0 -15891460.063 13256198.836 14882591.606 10 0 59361 3600.00000 0 -14766023.198 11610613.039 17234696.740 10 0 59361 4500.00000 0 -13653980.464 9641705.688 19251449.855 10 0 59361 5400.00000 0 -12612480.099 7384953.214 20893746.364 10 0 59361 6300.00000 0 -11692176.159 4887258.207 22129801.295 10 0 59361 7200.00000 0 -10935069.469 2205232.116 22935756.486 10 0 59361 8100.00000 0 -10372734.433 -596924.670 23296131.061 10 0 59361 9000.00000 0 -10025005.184 -3449856.919 23204107.712 10 0 59361 9900.00000 0 -9899174.903 -6281701.547 22661650.484 10 0 59361 10800.00000 0 -9989740.353 -9020837.990 21679453.023 10 0 59361 11700.00000 0 -10278700.807 -11598628.513 20276719.320 10 0 59361 12600.00000 0 -10736397.414 -13952035.787 18480781.989 10 0 59361 13500.00000 0 -11322856.639 -16026010.486 16326565.984 10 0 59361 14400.00000 0 -11989580.545 -17775551.407 13855908.321 10 0 59361 15300.00000 0 -12681708.295 -19167354.138 11116746.927 10 0 59361 16200.00000 0 -13340457.915 -20180981.448 8162194.087 10 0 59361 17100.00000 0 -13905745.819 -20809508.284 5049511.879 10 0 59361 18000.00000 0 -14318874.249 -21059615.821 1839009.044 10 0 59361 18900.00000 0 -14525173.926 -20951131.883 -1407119.998 10 0 59361 19800.00000 0 -14476491.053 -20516037.778 -4625992.126 10 0 59361 20700.00000 0 -14133414.153 -19796983.650 -7755245.745 10 0 59361 21600.00000 0 -13467147.004 -18845374.802 -10734241.461 10 0 59361 22500.00000 0 -12460948.429 -17719109.174 -13505230.437 10 0 59361 23400.00000 0 -11111077.706 -16480060.561 -16014468.218 10 0 59361 24300.00000 0 -9427204.670 -15191412.772 -18213252.923 10 0 59361 25200.00000 0 -7432265.758 -13914956.022 -20058868.095 10 0 59361 26100.00000 0 -5161770.136 -12708458.494 -21515412.162 10 0 59361 27000.00000 0 -2662582.826 -11623222.948 -22554498.660 10 0 59361 27900.00000 0 8766.669 -10701930.587 -23155813.621 10 0 59361 28800.00000 0 2788181.841 -9976862.625 -23307519.078 10 0 59361 29700.00000 0 5606417.466 -9468574.420 -23006494.407 10 0 59361 30600.00000 0 8391719.876 -9185078.268 -22258410.075 10 0 59361 31500.00000 0 11072580.612 -9121569.887 -21077631.426 10 0 59361 32400.00000 0 13580489.863 -9260710.908 -19486953.233 10 0 59361 33300.00000 0 15852575.514 -9573456.328 -17517168.965 10 0 59361 34200.00000 0 17834017.784 -10020392.836 -15206482.005 10 0 59361 35100.00000 0 19480138.424 -10553532.114 -12599769.260 10 0 59361 36000.00000 0 20758076.662 -11118483.601 -9747710.755 10 0 59361 36900.00000 0 21647981.102 -11656914.683 -6705801.868 10 0 59361 37800.00000 0 22143667.170 -12109193.588 -3533267.529 10 0 59361 38700.00000 0 22252712.271 -12417102.011 -291900.045 10 0 59361 39600.00000 0 21995984.759 -12526501.215 2955155.766 10 0 59361 40500.00000 0 21406627.141 -12389837.023 6144645.257 10 0 59361 41400.00000 0 20528537.345 -11968375.953 9214448.806 10 0 59361 42300.00000 0 19414413.393 -11234076.290 12104803.068 10 0 59361 43200.00000 0 18123445.505 -10171013.608 14759473.590 10 0 59361 44100.00000 0 16718754.518 -8776299.492 17126854.944 10 0 59361 45000.00000 0 15264686.071 -7060454.100 19160976.295 10 0 59361 45900.00000 0 13824075.625 -5047216.516 20822392.718 10 0 59361 46800.00000 0 12455600.119 -2772800.803 22078945.252 10 0 59361 47700.00000 0 11211327.729 -284629.089 22906375.569 10 0 59361 48600.00000 0 10134568.238 2360405.141 23288784.401 10 0 59361 49500.00000 0 9258113.208 5098071.006 23218926.034 10 0 59361 50400.00000 0 8602938.414 7859242.467 22698334.439 10 0 59361 51300.00000 0 8177421.186 10572547.567 21737279.818 10 0 59361 52200.00000 0 7977103.619 13167115.177 20354557.445 10 0 59361 53100.00000 0 7985009.785 15575305.910 18577113.727 10 0 59361 54000.00000 0 8172501.999 17735315.003 16439517.211 10 0 59361 54900.00000 0 8500638.880 19593540.388 13983284.996 10 0 59361 55800.00000 0 8921977.214 21106618.909 11256077.582 10 0 59361 56700.00000 0 9382741.348 22243047.539 8310777.475 10 0 59361 57600.00000 0 9825268.618 22984323.531 5204468.937 10 0 59361 58500.00000 0 10190628.005 23325557.198 1997338.165 10 0 59361 59400.00000 0 10421301.951 23275532.862 -1248485.361 10 0 59361 60300.00000 0 10463818.705 22856216.244 -4470124.599 10 0 59361 61200.00000 0 10271224.526 22101729.352 -7605165.002 10 0 59361 62100.00000 0 9805291.675 21056836.025 -10592856.116 10 0 59361 63000.00000 0 9038368.995 19775001.427 -13375281.968 10 0 59361 63900.00000 0 7954796.650 18316106.485 -15898477.995 10 0 59361 64800.00000 0 6551824.561 16743912.464 -18113473.357 10 0 59361 65700.00000 0 4839994.562 15123381.285 -19977238.875 10 0 59361 66600.00000 0 2842968.507 13517963.153 -21453522.427 10 0 59361 67500.00000 0 596807.442 11986964.447 -22513555.852 10 0 59361 68400.00000 0 -1851270.355 10583105.596 -23136619.642 10 0 59361 69300.00000 0 -4444602.860 9350370.864 -23310454.218 10 0 59361 70200.00000 0 -7119200.161 8322239.994 -23031509.380 10 0 59361 71100.00000 0 -9806176.562 7520375.891 -22305026.355 10 0 59361 72000.00000 0 -12434399.204 6953823.715 -21144949.912 10 0 59361 72900.00000 0 -14933244.128 6618755.452 -19573671.126 10 0 59361 73800.00000 0 -17235345.675 6498771.228 -17621604.599 10 0 59361 74700.00000 0 -19279224.678 6565745.231 -15326607.186 10 0 59361 75600.00000 0 -21011685.557 6781180.938 -12733248.543 10 0 59361 76500.00000 0 -22389881.545 7098018.601 -9891946.902 10 0 59361 77400.00000 0 -23382960.764 7462818.395 -6857986.624 10 0 59361 78300.00000 0 -23973223.450 7818226.250 -3690436.684 10 0 59361 79200.00000 0 -24156741.100 8105616.973 -450991.692 10 0 59361 80100.00000 0 -23943411.200 8267801.291 2797240.987 10 0 59361 81000.00000 0 -23356445.375 8251680.516 5990983.146 10 0 59361 81900.00000 0 -22431313.046 8010734.604 9068031.088 10 0 59361 82800.00000 0 -21214186.068 7507236.540 11968478.619 10 0 59361 83700.00000 0 -19759951.187 6714097.855 14635892.587 10 0 59361 84600.00000 0 -18129875.439 5616265.990 17018417.082 10 0 59361 85500.00000 0 -16389024.250 4211613.700 19069784.092 99